TimeCST,TemperatureF,Dew PointF,Humidity,Sea Level PressureIn,VisibilityMPH,Wind Direction,Wind SpeedMPH,Gust SpeedMPH,PrecipitationIn,Events,Conditions,WindDirDegrees,DateUTC
12:00 AM,64.4,62.6,94,30.27,6.2,North,9.2,-,N/A,,Mostly Cloudy,360,2013-10-29 06:00:00
1:00 AM,64.4,62.6,94,30.27,6.2,North,11.5,-,N/A,,Mostly Cloudy,360,2013-10-29 07:00:00
2:00 AM,64.4,62.6,94,30.24,6.2,North,6.9,-,N/A,,Mostly Cloudy,360,2013-10-29 08:00:00
3:00 AM,64.4,62.6,94,30.24,6.2,North,6.9,-,N/A,,Mostly Cloudy,350,2013-10-29 09:00:00
4:00 AM,64.4,62.6,94,30.24,6.2,North,11.5,-,N/A,,Mostly Cloudy,350,2013-10-29 10:00:00
5:00 AM,64.4,62.6,94,30.27,6.2,North,11.5,-,N/A,,Mostly Cloudy,360,2013-10-29 11:00:00
5:35 AM,-9999,-9999,N/A,-9999,5.0,North,9.2,-,N/A,,Drizzle,360,2013-10-29 11:35:00
6:00 AM,64.4,62.6,94,30.27,6.2,North,9.2,-,N/A,,Light Drizzle,360,2013-10-29 12:00:00
6:35 AM,-9999,-9999,N/A,-9999,6.2,North,9.2,-,N/A,,Partly Cloudy,360,2013-10-29 12:35:00
7:00 AM,64.4,62.6,94,30.30,6.2,North,9.2,-,N/A,,Mostly Cloudy,360,2013-10-29 13:00:00
8:00 AM,66.2,64.4,94,30.33,6.2,North,9.2,-,N/A,,Light Drizzle,360,2013-10-29 14:00:00
9:00 AM,68.0,62.6,83,30.33,6.2,NNE,13.8,-,N/A,,Scattered Clouds,30,2013-10-29 15:00:00
10:00 AM,69.8,62.6,78,30.33,6.2,North,16.1,-,N/A,,Mostly Cloudy,360,2013-10-29 16:00:00
11:00 AM,73.4,60.8,65,30.33,6.2,North,16.1,-,N/A,,Scattered Clouds,360,2013-10-29 17:00:00
12:00 PM,74,61,54,29.95,25,North,13.8,,,,Partly Cloudy,0,2013-10-29 18:00:00
12:00 PM,73.4,60.8,65,30.30,6.2,North,13.8,-,N/A,,Scattered Clouds,360,2013-10-29 18:00:00
1:00 PM,73.4,60.8,65,30.27,6.2,North,13.8,-,N/A,,Mostly Cloudy,360,2013-10-29 19:00:00
2:00 PM,75.2,62.6,65,30.24,6.2,North,9.2,-,N/A,,Mostly Cloudy,360,2013-10-29 20:00:00
3:00 PM,73.4,60.8,65,30.21,6.2,North,13.8,-,N/A,,Scattered Clouds,360,2013-10-29 21:00:00
4:00 PM,73.4,60.8,65,30.21,6.2,North,11.5,-,N/A,,Scattered Clouds,360,2013-10-29 22:00:00
5:00 PM,71.6,62.6,73,30.24,6.2,North,13.8,-,N/A,,Light Drizzle,360,2013-10-29 23:00:00
5:22 PM,-9999,-9999,N/A,-9999,6.2,North,6.9,-,N/A,,Mostly Cloudy,360,2013-10-29 23:22:00
6:00 PM,68.0,62.6,83,30.27,6.2,NNE,16.1,-,N/A,,Light Drizzle,20,2013-10-30 00:00:00
7:00 PM,66.2,64.4,94,30.27,6.2,North,13.8,-,N/A,,Mostly Cloudy,360,2013-10-30 01:00:00
7:10 PM,-9999,-9999,N/A,-9999,4.3,North,11.5,-,N/A,Rain,Light Rain,360,2013-10-30 01:10:00
8:00 PM,66.2,64.4,94,30.27,6.2,North,11.5,-,N/A,,Scattered Clouds,360,2013-10-30 02:00:00
9:00 PM,66.2,64.4,94,30.33,6.2,North,13.8,-,N/A,,Mostly Cloudy,360,2013-10-30 03:00:00
10:00 PM,66.2,64.4,94,30.33,6.2,North,11.5,-,N/A,,Mostly Cloudy,360,2013-10-30 04:00:00
11:00 PM,64.4,64.4,100,30.33,6.2,North,9.2,-,N/A,,Overcast,360,2013-10-30 05:00:00